GFSNIL_925_temp_129.txt.gz
Temp
12 13 12 12 13 13 14 15 17 18 20 18 16 17 16 16 16 15 15 15 15 16
8 9 9 10 12 13 13 13 13 14 15 15 16 16 15 15 16 16 15 15 15 15
5 6 6 8 9 11 12 13 13 13 13 13 14 15 15 15 15 14 15 15 15 14
3 4 5 5 6 8 9 9 10 11 11 11 12 14 14 14 14 14 14 14 14 14
2 3 4 4 5 5 6 6 6 7 8 9 11 13 13 14 14 14 14 14 14 13
1 1 1 2 2 2 3 4 5 6 7 8 10 11 13 13 14 14 13 13 13 13
0 0 1 1 1 1 2 3 4 5 6 8 9 11 12 13 13 13 13 13 13 13
-1 -1 -1 -0 0 0 1 2 3 4 6 7 8 10 12 13 13 13 13 13 13 13
-2 -2 -1 -1 -0 0 0 1 1 3 5 6 8 10 12 13 13 13 13 13 13 13
-3 -2 -2 -2 -1 -1 -1 -0 1 2 3 5 6 11 13 13 13 13 13 13 12 12
-3 -3 -3 -2 -2 -1 -1 -1 0 1 2 3 5 10 13 13 13 13 13 13 12 12
-4 -4 -3 -3 -3 -2 -2 -1 -1 0 1 1 5 9 12 13 13 13 12 12 12 12
-4 -4 -4 -4 -4 -3 -3 -2 -2 -1 -1 -0 2 6 10 12 12 11 11 11 11 12
-5 -5 -5 -5 -5 -4 -3 -3 -3 -2 -2 -2 -0 2 6 10 10 11 10 11 11 11

GFSNIL_925_temp_132.txt.gz
Temp
12 14 14 14 16 16 16 16 16 15 16 15 17 18 18 18 18 16 16 16 17 17
9 10 11 11 13 14 15 15 15 16 17 17 16 17 17 16 16 15 15 16 16 17
9 9 10 10 11 11 12 12 13 13 14 14 15 15 15 15 16 15 15 16 16 17
6 7 7 8 9 8 8 10 10 11 12 13 13 14 14 15 15 15 15 15 15 16
5 5 5 6 6 5 8 8 9 10 10 11 12 13 14 15 14 15 15 15 15 15
3 4 5 5 3 5 5 6 8 9 10 11 11 12 13 14 15 15 14 14 14 14
2 2 3 3 3 4 4 5 6 7 8 9 10 11 12 13 14 15 15 14 14 14
0 2 2 3 3 3 3 4 4 5 6 7 9 10 11 11 12 15 15 14 14 14
0 0 1 1 2 3 3 3 2 3 4 5 6 8 8 9 9 12 15 15 14 13
-1 -0 -0 1 1 1 2 2 2 2 2 3 4 5 5 6 6 8 13 15 14 13
-1 -1 -1 -1 -0 0 1 1 1 1 1 2 2 1 1 4 6 9 12 14 14 13
-2 -1 -1 -2 -2 -1 -0 0 -0 -0 -0 -1 -0 -1 -1 2 7 9 12 13 13 13
-2 -2 -2 -2 -2 -2 -1 0 -1 -1 -2 -2 -2 -2 -2 -1 4 7 11 12 13 13
-4 -3 -3 -3 -3 -3 -3 -1 -1 -2 -2 -3 -4 -3 -3 -2 0 4 8 11 12 12

GFSNIL_925_temp_135.txt.gz
Temp
16 19 22 24 22 21 19 19 18 17 17 16 16 17 17 18 18 19 15 16 18 16
10 11 11 15 17 17 16 16 16 16 16 16 16 16 16 16 17 16 16 17 18 17
7 8 9 10 12 12 13 14 15 15 15 16 16 16 17 17 17 16 16 16 16 16
6 8 8 8 8 9 11 12 13 14 15 15 16 16 15 16 17 17 17 16 16 16
4 5 6 6 7 8 9 10 11 12 13 14 14 15 16 16 15 15 15 15 15 15
4 6 5 5 6 7 7 8 10 10 11 12 13 14 14 15 16 16 16 15 15 15
2 3 3 4 5 6 6 7 8 8 8 9 10 11 13 14 14 15 16 16 16 16
1 2 3 4 4 5 5 5 6 5 6 7 7 9 8 9 10 12 13 15 16 16
0 2 2 2 3 3 4 4 4 4 4 4 5 5 4 5 3 5 7 9 10 15
1 1 1 1 1 2 2 3 2 2 2 2 2 2 1 1 0 1 3 5 8 9
1 0 0 1 1 0 1 2 2 2 1 0 -0 -1 -2 -2 -1 2 4 6 7 8
-1 -0 -1 -0 -0 0 0 1 1 1 1 -0 -1 -3 -3 -3 -2 0 3 6 9 10
-3 -2 -2 -2 -2 -1 -0 0 -1 -1 -1 -0 -1 -3 -4 -3 -2 -1 -1 3 7 11
-3 -3 -3 -3 -3 -2 -2 -1 -2 -2 -2 -2 -2 -3 -4 -4 -3 -3 -3 -0 3 7

GFSNIL_925_temp_138.txt.gz
Temp
11 12 15 17 20 21 21 20 19 17 17 17 18 17 18 18 19 17 16 16 16 17
8 9 10 13 17 21 21 20 20 18 18 18 18 17 18 18 17 15 15 15 16 17
5 6 7 8 12 11 18 18 18 18 17 17 17 16 17 16 16 16 16 16 16 16
4 4 5 6 7 8 9 12 13 13 13 15 15 16 15 16 17 17 17 16 16 16
2 2 3 4 5 6 6 8 10 11 11 11 13 14 14 15 15 16 16 16 16 16
0 1 2 1 4 5 5 6 7 8 9 9 10 11 13 14 14 15 16 16 15 15
-0 -0 0 1 2 3 4 4 5 6 6 7 8 8 7 8 9 10 11 14 15 16
-0 -0 -0 0 1 2 2 2 3 4 4 5 5 1 2 3 3 5 6 7 9 11
-1 -0 0 -0 0 0 1 2 2 2 2 2 1 1 1 1 1 3 3 4 5 7
-1 -0 -1 0 1 1 1 1 1 1 1 0 -1 -2 -3 -3 -2 -0 1 2 3 4
-2 -1 -2 -2 -1 0 1 -0 -0 -0 -0 -0 -1 -2 -3 -4 -3 -1 -0 1 2 3
-2 -2 -2 -2 -2 -2 -1 -1 -1 -1 -1 -2 -3 -3 -4 -4 -3 -2 -2 -1 -1 0
-3 -3 -3 -3 -3 -3 -3 -3 -3 -3 -3 -3 -4 -4 -4 -5 -5 -4 -3 -3 -2 -1
-4 -3 -4 -4 -4 -5 -5 -4 -5 -4 -4 -4 -5 -5 -5 -5 -5 -5 -4 -3 -3 -3

GFSNIL_925_temp_141.txt.gz
Temp
5 5 7 8 11 14 16 17 17 16 18 18 18 19 19 18 17 18 19 18 17 17
3 4 5 7 9 12 14 13 14 14 17 17 19 18 17 17 17 18 18 18 17 17
1 2 3 6 6 8 10 12 13 13 15 16 17 18 17 16 16 17 17 15 16 16
-0 1 2 3 4 5 7 9 11 12 15 16 16 17 16 16 16 16 16 16 16 16
-1 -0 1 1 2 3 4 6 10 8 9 12 11 12 14 14 13 15 16 16 16 16
-1 -0 -0 0 1 2 2 3 5 7 3 3 5 6 8 9 10 11 11 11 13 14
-1 -1 -0 -0 -0 0 1 1 2 3 2 -0 -0 2 2 5 7 8 9 9 9 11
-2 -2 -1 -1 -1 -1 -0 0 0 1 1 -0 -2 -2 -2 -0 3 5 6 6 7 8
-2 -2 -2 -2 -1 -1 -1 -1 -1 -1 -1 -1 -2 -3 -3 -3 -1 1 1 2 4 5
-2 -3 -3 -3 -2 -2 -2 -2 -2 -2 -2 -2 -3 -3 -3 -3 -3 -2 -1 0 1 1
-3 -3 -3 -4 -4 -3 -3 -3 -3 -3 -4 -4 -4 -4 -4 -4 -4 -3 -2 -2 -1 -1
-3 -4 -4 -5 -5 -4 -4 -4 -4 -5 -5 -5 -6 -5 -5 -5 -5 -4 -4 -3 -3 -2
-4 -4 -4 -5 -5 -6 -6 -6 -5 -6 -6 -6 -6 -5 -5 -5 -5 -5 -5 -4 -4 -4
-4 -4 -5 -5 -6 -6 -6 -6 -6 -6 -7 -7 -7 -6 -6 -6 -6 -6 -6 -5 -5 -6

GFSNIL_925_temp_144.txt.gz
Temp
-0 0 1 3 3 5 7 10 12 14 15 16 17 15 15 17 19 17 17 17 17 17
-1 -0 0 1 2 4 6 8 9 12 13 15 16 15 15 16 19 17 17 17 17 17
-1 -1 -0 0 1 2 4 6 8 11 13 14 17 18 15 15 17 17 17 17 16 16
-2 -2 -1 -1 -0 1 3 5 5 7 11 13 16 13 10 12 17 16 16 15 15 15
-2 -2 -2 -1 -1 -0 1 3 2 3 5 7 9 12 8 9 15 16 15 14 14 15
-3 -2 -2 -2 -1 -1 -0 1 1 1 1 3 5 5 6 7 4 12 13 13 14 13
-3 -3 -3 -3 -2 -2 -1 -1 -1 -1 -1 -1 -1 4 5 4 1 4 6 7 8 8
-3 -3 -4 -4 -3 -3 -2 -2 -2 -3 -3 -3 -2 -2 2 3 -0 0 2 3 5 4
-3 -3 -4 -4 -4 -4 -3 -4 -4 -4 -4 -4 -4 -3 -1 2 1 0 -0 1 2 3
-3 -4 -4 -5 -5 -5 -5 -5 -5 -5 -5 -5 -4 -4 -2 -1 -0 -1 -2 -1 -1 0
-4 -4 -5 -5 -5 -6 -5 -5 -6 -6 -6 -5 -5 -5 -5 -3 -3 -3 -3 -3 -3 -3
-4 -5 -5 -6 -6 -6 -6 -6 -6 -7 -7 -6 -6 -5 -5 -5 -5 -5 -4 -4 -5 -5
-5 -5 -6 -6 -6 -7 -7 -7 -7 -7 -7 -7 -6 -6 -6 -6 -6 -6 -6 -6 -6 -6
-5 -5 -6 -7 -7 -8 -7 -7 -7 -7 -8 -8 -7 -7 -6 -7 -8 -8 -7 -7 -7 -7